| time (UTC) | temp F | wind direction | speed knots | gust knots | rain 1hr in | rain 24hr in | rain mn in | humidity % | barometer mb |
| 20260507180318 | 63 | 290 | 1.7 | 7.0 | 0.00 | 0.00 | 0.00 | 67 | 1024.8 |
| 20260507174819 | 64 | 273 | 0.0 | 0.0 | 0.00 | 0.00 | 0.00 | 61 | 1024.3 |
| 20260507173318 | 65 | 257 | 0.0 | 0.0 | 0.00 | 0.00 | 0.00 | 60 | 1024.2 |
| 20260507171818 | 65 | 262 | 0.0 | 0.0 | 0.00 | 0.00 | 0.00 | 59 | 1024.3 |
| 20260507170319 | 66 | 242 | 0.0 | 0.0 | 0.00 | 0.00 | 0.00 | 56 | 1024.1 |
| 20260507164818 | 67 | 260 | 0.9 | 3.5 | 0.00 | 0.00 | 0.00 | 55 | 1024.1 |
| 20260507163319 | 67 | 218 | 0.0 | 0.0 | 0.00 | 0.00 | 0.00 | 52 | 1024.0 |
| 20260507161818 | 67 | 202 | 0.0 | 0.0 | 0.00 | 0.00 | 0.00 | 51 | 1023.8 |
| 20260507160319 | 67 | 248 | 0.0 | 3.5 | 0.00 | 0.00 | 0.00 | 50 | 1023.9 |
| 20260507154818 | 68 | 243 | 0.0 | 0.0 | 0.00 | 0.00 | 0.00 | 50 | 1023.9 |
| 20260507153319 | 68 | 232 | 0.0 | 0.0 | 0.00 | 0.00 | 0.00 | 48 | 1024.0 |
| 20260507151818 | 69 | 277 | 0.9 | 3.5 | 0.00 | 0.00 | 0.00 | 47 | 1023.9 |
| 20260507150319 | 69 | 253 | 0.0 | 0.0 | 0.00 | 0.00 | 0.00 | 49 | 1024.0 |
| 20260507144818 | 69 | 129 | 0.0 | 0.0 | 0.00 | 0.00 | 0.00 | 49 | 1024.0 |
| 20260507143318 | 69 | 250 | 0.0 | 0.0 | 0.00 | 0.00 | 0.00 | 50 | 1024.1 |
| 20260507141818 | 70 | 238 | 0.9 | 3.5 | 0.00 | 0.00 | 0.00 | 49 | 1024.2 |
| 20260507140318 | 71 | 295 | 0.0 | 0.0 | 0.00 | 0.00 | 0.00 | 48 | 1024.3 |
| 20260507134819 | 70 | 115 | 2.6 | 13.9 | 0.00 | 0.00 | 0.00 | 50 | 1024.3 |
| 20260507133318 | 69 | 264 | 0.9 | 7.0 | 0.00 | 0.00 | 0.00 | 51 | 1024.3 |
| 20260507131818 | 69 | 295 | 1.7 | 7.0 | 0.00 | 0.00 | 0.00 | 51 | 1024.5 |
| 20260507130319 | 69 | 281 | 0.0 | 0.0 | 0.00 | 0.00 | 0.00 | 49 | 1024.7 |
| 20260507124818 | 68 | 177 | 0.0 | 0.0 | 0.00 | 0.00 | 0.00 | 52 | 1024.4 |
| 20260507123319 | 68 | 118 | 0.9 | 7.0 | 0.00 | 0.00 | 0.00 | 52 | 1024.7 |
| 20260507121818 | 68 | 274 | 0.9 | 7.0 | 0.00 | 0.00 | 0.00 | 52 | 1024.7 |
| 20260507120318 | 68 | 115 | 0.9 | 7.0 | 0.00 | 0.00 | 0.00 | 52 | 1024.6 |
| 20260507114818 | 70 | 317 | 0.9 | 3.5 | 0.00 | 0.00 | 0.00 | 50 | 1024.4 |
| 20260507113318 | 69 | 4 | 0.9 | 7.0 | 0.00 | 0.00 | 0.00 | 48 | 1024.8 |
| 20260507111817 | 67 | 263 | 0.9 | 7.0 | 0.00 | 0.00 | 0.00 | 52 | 1024.8 |
| 20260507110318 | 67 | 272 | 0.9 | 7.0 | 0.00 | 0.00 | 0.00 | 53 | 1025.1 |
| 20260507104818 | 69 | 313 | 0.0 | 3.5 | 0.00 | 0.00 | 0.00 | 53 | 1025.1 |
| 20260507103319 | 68 | 315 | 1.7 | 10.4 | 0.00 | 0.00 | 0.00 | 53 | 1025.0 |
| 20260507101818 | 68 | 312 | 0.9 | 7.0 | 0.00 | 0.00 | 0.00 | 52 | 1024.9 |
| 20260507100318 | 67 | 247 | 1.7 | 7.0 | 0.00 | 0.00 | 0.00 | 53 | 1025.1 |
| 20260507094818 | 69 | 256 | 2.6 | 10.4 | 0.00 | 0.00 | 0.00 | 51 | 1025.4 |
| 20260507093317 | 69 | 312 | 3.5 | 13.9 | 0.00 | 0.00 | 0.00 | 52 | 1025.1 |
| 20260507091819 | 68 | 133 | 2.6 | 18.2 | 0.00 | 0.00 | 0.00 | 51 | 1025.0 |
| 20260507090318 | 67 | 297 | 1.7 | 13.9 | 0.00 | 0.00 | 0.00 | 56 | 1024.7 |
| 20260507084818 | 68 | 105 | 1.7 | 7.0 | 0.00 | 0.00 | 0.00 | 54 | 1024.7 |
| 20260507083318 | 66 | 304 | 2.6 | 13.9 | 0.00 | 0.00 | 0.00 | 56 | 1024.3 |
| 20260507081818 | 65 | 308 | 1.7 | 10.4 | 0.00 | 0.00 | 0.00 | 57 | 1024.4 |
| 20260507080318 | 66 | 272 | 0.0 | 3.5 | 0.00 | 0.00 | 0.00 | 59 | 1024.2 |
| 20260507074818 | 65 | 231 | 0.0 | 3.5 | 0.00 | 0.00 | 0.00 | 59 | 1024.1 |
| 20260507073317 | 64 | 277 | 0.9 | 3.5 | 0.00 | 0.00 | 0.00 | 60 | 1023.9 |
| 20260507071818 | 63 | 323 | 2.6 | 13.9 | 0.00 | 0.00 | 0.00 | 61 | 1023.8 |
| 20260507070317 | 63 | 280 | 0.9 | 10.4 | 0.00 | 0.00 | 0.00 | 62 | 1023.9 |
| 20260507064817 | 62 | 200 | 1.7 | 7.0 | 0.00 | 0.00 | 0.00 | 64 | 1023.7 |
| 20260507063318 | 62 | 247 | 0.9 | 3.5 | 0.00 | 0.00 | 0.00 | 65 | 1023.4 |
| 20260507061818 | 61 | 277 | 1.7 | 7.0 | 0.00 | 0.00 | 0.00 | 66 | 1023.2 |
| 20260507060317 | 61 | 264 | 1.7 | 10.4 | 0.00 | 0.00 | 0.00 | 67 | 1023.2 |
| 20260507054817 | 60 | 245 | 1.7 | 7.0 | 0.00 | 0.00 | 0.00 | 68 | 1023.1 |
| 20260507053318 | 60 | 313 | 2.6 | 13.9 | 0.00 | 0.00 | 0.00 | 69 | 1023.3 |
| 20260507051818 | 60 | 300 | 0.0 | 3.5 | 0.00 | 0.00 | 0.00 | 75 | 1023.0 |
| 20260507050318 | 60 | 279 | 0.0 | 0.0 | 0.00 | 0.00 | 0.00 | 74 | 1022.4 |
| 20260507044824 | 60 | 257 | 0.0 | 3.5 | 0.00 | 0.00 | 0.00 | 74 | 1022.3 |
| 20260507043317 | 59 | 250 | 0.9 | 7.0 | 0.00 | 0.00 | 0.00 | 76 | 1022.1 |
| 20260507041818 | 59 | 298 | 0.9 | 3.5 | 0.00 | 0.00 | 0.00 | 77 | 1021.8 |
| 20260507040317 | 59 | 283 | 0.0 | 3.5 | 0.00 | 0.00 | 0.00 | 78 | 1021.7 |
| 20260507034817 | 58 | 277 | 0.0 | 0.0 | 0.00 | 0.00 | 0.00 | 80 | 1021.7 |
| 20260507033318 | 58 | 273 | 0.0 | 0.0 | 0.00 | 0.00 | 0.00 | 80 | 1021.6 |
| 20260507031818 | 58 | 247 | 0.0 | 0.0 | 0.00 | 0.00 | 0.00 | 82 | 1021.7 |
| 20260507030318 | 57 | 264 | 0.0 | 0.0 | 0.00 | 0.00 | 0.00 | 83 | 1021.3 |
| 20260507024817 | 57 | 264 | 0.0 | 0.0 | 0.00 | 0.00 | 0.00 | 84 | 1021.4 |
| 20260507023318 | 57 | 275 | 0.0 | 0.0 | 0.00 | 0.00 | 0.00 | 85 | 1021.2 |
| 20260507021819 | 58 | 16 | 0.0 | 3.5 | 0.00 | 0.00 | 0.00 | 84 | 1020.9 |
| 20260507020317 | 59 | 266 | 0.0 | 0.0 | 0.00 | 0.00 | 0.00 | 83 | 1021.2 |
| 20260507014818 | 59 | 233 | 0.0 | 0.0 | 0.00 | 0.00 | 0.00 | 82 | 1021.0 |
| 20260507013318 | 59 | 242 | 0.0 | 0.0 | 0.00 | 0.00 | 0.00 | 82 | 1021.0 |
| 20260507011818 | 59 | 98 | 0.0 | 3.5 | 0.00 | 0.00 | 0.00 | 81 | 1020.7 |
| 20260507010318 | 59 | 159 | 0.0 | 0.0 | 0.00 | 0.00 | 0.00 | 80 | 1020.8 |
| 20260507004818 | 59 | 285 | 0.0 | 3.5 | 0.00 | 0.00 | 0.00 | 80 | 1020.8 |
| 20260507003319 | 60 | 259 | 0.9 | 3.5 | 0.00 | 0.00 | 0.00 | 78 | 1020.4 |
| 20260507001817 | 61 | 283 | 0.0 | 0.0 | 0.00 | 0.00 | 0.00 | 76 | 1020.3 |
| 20260507000318 | 61 | 83 | 0.9 | 7.0 | 0.00 | 0.00 | 0.00 | 75 | 1020.2 |
| 20260506234818 | 62 | 112 | 1.7 | 7.0 | 0.00 | 0.00 | 0.00 | 74 | 1020.2 |
| 20260506233317 | 62 | 106 | 2.6 | 18.2 | 0.00 | 0.00 | 0.00 | 73 | 1020.1 |
| 20260506231817 | 63 | 178 | 0.9 | 7.0 | 0.00 | 0.00 | 0.00 | 73 | 1019.9 |
| 20260506230317 | 63 | 89 | 0.9 | 7.0 | 0.00 | 0.00 | 0.00 | 72 | 1019.8 |
| 20260506224817 | 63 | 239 | 3.5 | 28.7 | 0.00 | 0.00 | 0.00 | 72 | 1019.9 |
| 20260506223318 | 63 | 358 | 3.5 | 18.2 | 0.00 | 0.00 | 0.00 | 72 | 1019.6 |
| 20260506221817 | 64 | 177 | 0.9 | 10.4 | 0.00 | 0.00 | 0.00 | 72 | 1019.2 |
| 20260506220317 | 64 | 145 | 7.0 | 35.6 | 0.00 | 0.00 | 0.00 | 71 | 1019.0 |
| 20260506214818 | 64 | 175 | 3.5 | 18.2 | 0.00 | 0.00 | 0.00 | 71 | 1019.3 |
| 20260506213318 | 64 | 232 | 1.7 | 10.4 | 0.00 | 0.00 | 0.00 | 70 | 1019.0 |
| 20260506211817 | 65 | 217 | 4.3 | 21.7 | 0.00 | 0.00 | 0.00 | 70 | 1019.2 |
| 20260506210317 | 65 | 224 | 3.5 | 32.2 | 0.00 | 0.00 | 0.00 | 69 | 1019.3 |
| 20260506204818 | 65 | 275 | 2.6 | 10.4 | 0.00 | 0.00 | 0.00 | 69 | 1019.2 |
| 20260506203317 | 65 | 176 | 2.6 | 13.9 | 0.00 | 0.00 | 0.00 | 68 | 1019.0 |
| 20260506201818 | 66 | 175 | 2.6 | 13.9 | 0.00 | 0.00 | 0.00 | 66 | 1018.9 |
| 20260506200318 | 66 | 116 | 5.2 | 21.7 | 0.00 | 0.00 | 0.00 | 65 | 1019.1 |
| 20260506194817 | 67 | 252 | 2.6 | 18.2 | 0.00 | 0.00 | 0.00 | 65 | 1018.7 |
| 20260506193318 | 67 | 169 | 2.6 | 21.7 | 0.00 | 0.00 | 0.00 | 64 | 1018.6 |
| 20260506191818 | 67 | 185 | 1.7 | 10.4 | 0.00 | 0.00 | 0.00 | 64 | 1018.7 |
| 20260506190317 | 67 | 225 | 3.5 | 13.9 | 0.00 | 0.00 | 0.00 | 62 | 1018.5 |
| 20260506184818 | 68 | 203 | 4.3 | 21.7 | 0.00 | 0.00 | 0.00 | 61 | 1018.4 |
| 20260506183318 | 68 | 120 | 2.6 | 13.9 | 0.00 | 0.00 | 0.00 | 61 | 1018.3 |
| 20260506181818 | 69 | 203 | 3.5 | 21.7 | 0.00 | 0.00 | 0.00 | 60 | 1018.3 |